Location: Newark
(57.7279°N, 5.6916°W)
Time: 02:53:44
(UTC+00:00)

N. Korean satellite - Pass Details

Date: 13 December 2019
Orbit: 454 x 508 km, 97.2° (Epoch: 17 January)

Event Time Altitude Azimuth Distance (km) Brightness Sun altitude
Rises 06:48:04 0° 13° (NNE) 2,563 10.2 -15.4°
Reaches altitude 10° 06:50:10 10° 11° (N) 1,668 9.2 -15.1°
Maximum altitude 06:53:43 68° 288° (WNW) 517 6.4 -14.7°
Drops below altitude 10° 06:57:11 10° 206° (SSW) 1,625 9.2 -14.2°
Sets 06:59:12 0° 203° (SSW) 2,489 10.2 -14.0°
